FW5810 Weather Reports


Display with metric or nautical units.
time (UTC)temp
F
wind
direction
speed
MPH
gust
MPH
rain 1hr
in
rain 24hr
in
rain mn
in
humidity
%
barometer
mb
20200703105934 61 124 0.0 0.0 0.00 0.00 0.00 98 1017.7
20200703105432 60 124 0.0 0.0 0.00 0.00 0.00 98 1017.6
20200703104931 60 124 0.0 0.0 0.00 0.00 0.00 98 1017.5
20200703104429 60 124 0.0 0.0 0.00 0.00 0.00 98 1017.5
20200703103926 60 124 0.0 0.0 0.00 0.00 0.00 98 1017.7
20200703103425 60 124 0.0 0.0 0.00 0.00 0.00 98 1017.6
20200703102922 60 123 0.0 0.0 0.00 0.00 0.00 98 1017.5
20200703102418 60 124 0.0 0.0 0.00 0.00 0.00 98 1017.6
20200703101913 59 124 0.0 0.0 0.00 0.00 0.00 98 1017.5
20200703101407 59 124 0.0 0.0 0.00 0.00 0.00 98 1017.6
20200703100905 59 122 0.0 0.0 0.00 0.00 0.00 98 1017.4
20200703100401 59 122 0.0 0.0 0.00 0.00 0.00 98 1017.5
20200703095857 60 126 0.0 0.0 0.00 0.00 0.00 98 1017.3
20200703095353 60 126 0.0 0.0 0.00 0.00 0.00 98 1017.3
20200703094848 59 126 0.0 0.0 0.00 0.00 0.00 98 1017.3
20200703094348 60 127 0.0 0.0 0.00 0.00 0.00 98 1017.2
20200703093848 60 127 0.0 0.0 0.00 0.00 0.00 98 1017.3
20200703093345 60 122 0.0 0.0 0.00 0.00 0.00 97 1017.2
20200703092842 60 122 0.0 0.0 0.00 0.00 0.00 98 1017.1
20200703092338 60 124 0.0 0.0 0.00 0.00 0.00 97 1017.1
20200703091835 60 125 0.0 0.0 0.00 0.00 0.00 97 1017.1
20200703091327 60 124 0.0 0.0 0.00 0.00 0.00 97 1017.0
20200703090824 60 125 0.0 0.0 0.00 0.00 0.00 97 1017.0
20200703090323 60 125 0.0 0.0 0.00 0.00 0.00 97 1017.0
20200703085819 60 125 0.0 0.0 0.00 0.00 0.00 97 1017.0
20200703085318 60 125 0.0 0.0 0.00 0.00 0.00 97 1016.7
20200703084814 60 124 0.0 0.0 0.00 0.00 0.00 97 1016.7
20200703084313 60 124 0.0 0.0 0.00 0.00 0.00 97 1017.0
20200703083810 60 125 0.0 0.0 0.00 0.00 0.00 97 1017.0
20200703083307 60 125 0.0 0.0 0.00 0.00 0.00 97 1016.9
20200703082803 60 125 0.0 0.0 0.00 0.00 0.00 97 1016.9
20200703082303 60 125 0.0 0.0 0.00 0.00 0.00 97 1016.9
20200703081800 60 126 0.0 0.0 0.00 0.00 0.00 97 1016.7
20200703081257 60 126 0.0 0.0 0.00 0.00 0.00 97 1016.6
20200703080756 60 125 0.0 0.0 0.00 0.00 0.00 97 1016.6
20200703080249 61 125 0.0 0.0 0.00 0.00 0.00 97 1016.9
20200703075746 61 125 0.0 0.0 0.00 0.00 0.00 97 1016.9
20200703075243 61 125 0.0 0.0 0.00 0.00 0.00 97 1017.1
20200703074743 61 125 0.0 0.0 0.00 0.00 0.00 97 1017.0
20200703074242 61 125 0.0 0.0 0.00 0.00 0.00 97 1017.1
20200703073739 61 125 0.0 0.0 0.00 0.00 0.00 97 1016.9
20200703073239 61 125 0.0 0.0 0.00 0.00 0.00 97 1017.1
20200703072740 61 125 0.0 0.0 0.00 0.00 0.00 97 1017.1
20200703072232 61 125 0.0 0.0 0.00 0.00 0.00 97 1017.1
20200703071729 61 125 0.0 0.0 0.00 0.00 0.00 96 1016.9
20200703071228 61 125 0.0 0.0 0.00 0.00 0.00 96 1017.1
20200703070727 61 125 0.0 0.0 0.00 0.00 0.00 96 1017.1
20200703070227 61 125 0.0 0.0 0.00 0.00 0.00 96 1017.0
20200703065716 61 125 0.0 0.0 0.00 0.00 0.00 96 1017.2
20200703065211 61 125 0.0 0.0 0.00 0.00 0.00 96 1017.5
20200703064706 61 125 0.0 0.0 0.00 0.00 0.00 96 1017.5
20200703064204 61 125 0.0 0.0 0.00 0.00 0.00 96 1017.2
20200703063659 61 125 0.0 0.0 0.00 0.00 0.00 96 1017.3
20200703063157 61 125 0.0 0.0 0.00 0.00 0.00 96 1017.4
20200703062655 61 125 0.0 0.0 0.00 0.00 0.00 96 1017.4
20200703062150 61 125 0.0 0.0 0.00 0.00 0.00 96 1017.4
20200703061649 61 125 0.0 0.0 0.00 0.00 0.00 96 1017.3
20200703061145 61 125 0.0 0.0 0.00 0.00 0.00 96 1017.3
20200703060645 61 125 0.0 0.0 0.00 0.00 0.00 96 1017.2
20200703060143 61 123 0.0 0.0 0.00 0.00 0.00 95 1017.0
20200703055642 61 123 0.0 0.0 0.00 0.00 0.00 95 1017.1
20200703055136 62 122 0.0 0.0 0.00 0.00 0.00 95 1017.2
20200703054632 62 125 0.0 0.0 0.00 0.00 0.00 95 1017.3
20200703054130 62 125 0.0 0.0 0.00 0.00 0.00 95 1017.0
20200703053625 62 125 0.0 0.0 0.00 0.00 0.00 95 1017.1
20200703053122 62 126 0.0 0.0 0.00 0.00 0.00 95 1017.1
20200703052618 62 126 0.0 0.0 0.00 0.00 0.00 95 1017.1
20200703052114 62 126 0.0 0.0 0.00 0.00 0.00 95 1016.9
20200703051609 62 125 0.0 0.0 0.00 0.00 0.00 94 1017.1
20200703051105 62 127 0.0 0.0 0.00 0.00 0.00 94 1017.0
20200703050601 62 125 0.0 0.0 0.00 0.00 0.00 94 1017.1
20200703050058 62 125 0.0 0.0 0.00 0.00 0.00 94 1017.1
20200703045556 63 125 0.0 0.0 0.00 0.00 0.00 94 1017.0
20200703045053 62 126 0.0 0.0 0.00 0.00 0.00 94 1017.0
20200703044551 63 124 0.0 0.0 0.00 0.00 0.00 93 1017.1
20200703044050 63 124 0.0 0.0 0.00 0.00 0.00 93 1016.9
20200703043547 63 129 0.0 0.0 0.00 0.00 0.00 93 1017.2
20200703043043 63 129 0.0 0.0 0.00 0.00 0.00 93 1017.1
20200703042551 63 129 0.0 0.0 0.00 0.00 0.00 92 1017.0
20200703042037 63 129 0.0 0.0 0.00 0.00 0.00 92 1017.1
20200703041534 63 129 0.0 0.0 0.00 0.00 0.00 92 1017.1
20200703041032 64 129 0.0 0.0 0.00 0.00 0.00 91 1017.2
20200703040528 64 129 0.0 0.0 0.00 0.00 0.00 91 1017.0
20200703040027 64 129 0.0 0.0 0.00 0.00 0.00 90 1017.2
20200703035526 64 129 0.0 0.0 0.00 0.00 0.00 90 1017.1
20200703035025 64 129 0.0 0.0 0.00 0.00 0.00 90 1017.2
20200703034525 64 129 0.0 0.0 0.00 0.00 0.00 89 1017.3
20200703034019 64 129 0.0 0.0 0.00 0.00 0.00 89 1017.2
20200703033518 64 126 0.0 0.0 0.00 0.00 0.00 89 1017.1
20200703033016 65 126 0.0 0.0 0.00 0.00 0.00 89 1017.4
20200703032517 65 125 0.0 0.0 0.00 0.00 0.00 89 1017.4
20200703032010 65 125 0.0 0.0 0.00 0.00 0.00 88 1017.3
20200703031508 65 125 0.0 0.0 0.00 0.00 0.00 88 1017.3
20200703031004 65 125 0.0 0.0 0.00 0.00 0.00 87 1017.3
20200703030500 66 125 0.0 0.0 0.00 0.00 0.00 87 1017.3
20200703025958 66 123 0.0 0.0 0.00 0.00 0.00 86 1017.3
20200703025454 66 123 0.0 0.0 0.00 0.00 0.00 85 1017.2
20200703024949 66 125 0.0 0.0 0.00 0.00 0.00 85 1017.4
20200703024447 66 125 0.0 0.0 0.00 0.00 0.00 84 1017.3
20200703023945 67 125 0.0 0.0 0.00 0.00 0.00 84 1017.4
20200703023441 67 125 0.0 0.0 0.00 0.00 0.00 84 1017.2
20200703022939 67 122 0.0 0.0 0.00 0.00 0.00 83 1017.2
20200703022438 67 125 0.0 0.0 0.00 0.00 0.00 82 1017.4
20200703021936 68 124 0.0 0.0 0.00 0.00 0.00 82 1017.1
20200703021433 68 124 0.0 0.0 0.00 0.00 0.00 80 1017.1
20200703020933 68 124 0.0 0.0 0.00 0.00 0.00 80 1017.1
20200703020426 69 124 0.0 0.0 0.00 0.00 0.00 79 1017.1
20200703015925 69 125 0.0 0.0 0.00 0.00 0.00 78 1016.9
20200703015426 70 125 0.0 0.0 0.00 0.00 0.00 78 1016.9
20200703014919 70 121 0.0 0.0 0.00 0.00 0.00 76 1016.9
20200703014417 71 122 0.0 0.0 0.00 0.00 0.00 75 1016.7
20200703013917 71 122 0.0 0.0 0.00 0.00 0.00 73 1016.7
20200703013415 71 122 0.0 0.0 0.00 0.00 0.00 71 1016.6
20200703012910 72 122 0.0 0.0 0.00 0.00 0.00 71 1016.6
20200703012409 72 122 0.0 0.0 0.00 0.00 0.00 70 1016.6
20200703011907 73 122 0.0 0.0 0.00 0.00 0.00 70 1016.7
20200703011403 74 122 0.0 0.0 0.00 0.00 0.00 69 1016.7
20200703010859 74 122 0.0 0.0 0.00 0.00 0.00 67 1016.6
20200703010357 75 122 0.0 0.0 0.00 0.00 0.00 66 1016.4
20200703005856 76 116 0.0 0.0 0.00 0.00 0.00 66 1016.7
20200703005353 76 125 0.0 0.0 0.00 0.00 0.00 62 1016.6
20200703004851 77 121 0.0 0.0 0.00 0.00 0.00 59 1016.6
20200703004344 78 113 0.0 0.0 0.00 0.00 0.00 58 1016.5
20200703003845 78 105 0.0 0.0 0.00 0.00 0.00 55 1016.4
20200703003339 79 112 1.0 1.0 0.00 0.00 0.00 54 1016.5
20200703002837 79 106 0.0 1.0 0.00 0.00 0.00 55 1016.5
20200703002333 79 107 0.0 1.0 0.00 0.00 0.00 53 1016.5
20200703001830 80 116 0.0 0.0 0.00 0.00 0.00 53 1016.5
20200703001330 80 113 0.0 0.0 0.00 0.00 0.00 52 1016.4
20200703000826 80 97 0.0 0.0 0.00 0.00 0.00 51 1016.6
20200703000322 80 73 1.0 1.0 0.00 0.00 0.00 51 1016.5
20200702235817 81 86 1.0 1.0 0.00 0.00 0.00 52 1016.6
20200702235317 81 79 1.0 1.0 0.00 0.00 0.00 50 1016.5
20200702234812 81 55 1.0 3.0 0.00 0.00 0.00 50 1016.5
20200702234309 81 72 3.0 3.0 0.00 0.00 0.00 48 1016.5
20200702233810 82 13 4.0 4.0 0.00 0.00 0.00 48 1016.5
20200702233306 82 96 1.0 1.0 0.00 0.00 0.00 50 1016.5
20200702232756 82 70 2.0 3.0 0.00 0.00 0.00 48 1016.5
20200702232256 82 50 3.0 4.0 0.00 0.00 0.00 48 1016.5
20200702231755 83 64 3.0 4.0 0.00 0.00 0.00 47 1016.5
20200702231251 83 329 3.0 4.0 0.00 0.00 0.00 46 1016.4
20200702230750 84 9 3.0 4.0 0.00 0.00 0.00 47 1016.7
20200702230249 84 16 3.0 4.0 0.00 0.00 0.00 47 1016.6
20200702225745 84 79 1.0 1.0 0.00 0.00 0.00 49 1016.7
20200702225251 84 83 1.0 1.0 0.00 0.00 0.00 47 1016.6
20200702224738 84 25 3.0 4.0 0.00 0.00 0.00 49 1016.6
20200702224237 85 114 4.0 4.0 0.00 0.00 0.00 48 1016.5
20200702223737 85 6 3.0 3.0 0.00 0.00 0.00 48 1016.5
20200702223234 85 27 3.0 4.0 0.00 0.00 0.00 48 1016.5
20200702222733 85 58 1.0 3.0 0.00 0.00 0.00 47 1016.6
20200702222223 85 34 3.0 4.0 0.00 0.00 0.00 47 1016.5
20200702221722 84 41 1.0 3.0 0.00 0.00 0.00 46 1016.6
20200702221215 84 46 3.0 4.0 0.00 0.00 0.00 46 1016.6
20200702220713 85 2 2.0 4.0 0.00 0.00 0.00 45 1016.5
20200702220210 85 13 4.0 5.0 0.00 0.00 0.00 48 1016.4
20200702215707 85 29 3.0 4.0 0.00 0.00 0.00 49 1016.5
20200702215204 85 15 3.0 4.0 0.00 0.00 0.00 47 1016.4
20200702214659 86 91 4.0 4.0 0.00 0.00 0.00 49 1016.4
20200702214154 85 359 3.0 4.0 0.00 0.00 0.00 49 1016.6
20200702213653 85 7 4.0 5.0 0.00 0.00 0.00 47 1016.5
20200702213153 86 27 2.0 3.0 0.00 0.00 0.00 49 1016.6
20200702212647 85 1 2.0 3.0 0.00 0.00 0.00 49 1016.6
20200702212145 86 22 3.0 4.0 0.00 0.00 0.00 49 1016.5
20200702211643 86 104 2.0 3.0 0.00 0.00 0.00 50 1016.6
20200702211141 86 114 2.0 3.0 0.00 0.00 0.00 46 1016.7
20200702210640 86 30 2.0 3.0 0.00 0.00 0.00 50 1016.7
20200702210139 86 314 1.0 1.0 0.00 0.00 0.00 49 1016.6
20200702205638 86 7 5.0 5.0 0.00 0.00 0.00 49 1016.6
20200702205135 86 329 3.0 3.0 0.00 0.00 0.00 48 1016.5
20200702204632 86 59 2.0 3.0 0.00 0.00 0.00 49 1016.7
20200702204130 86 196 2.0 3.0 0.00 0.00 0.00 47 1016.5
20200702203627 87 72 2.0 3.0 0.00 0.00 0.00 46 1016.7
20200702203122 86 103 1.0 3.0 0.00 0.00 0.00 49 1016.7
20200702202618 86 21 3.0 4.0 0.00 0.00 0.00 48 1016.9
20200702202116 86 13 3.0 5.0 0.00 0.00 0.00 47 1016.6
20200702201612 86 45 1.0 3.0 0.00 0.00 0.00 46 1016.9
20200702201110 86 132 0.0 0.0 0.00 0.00 0.00 50 1016.7
20200702200607 87 51 3.0 4.0 0.00 0.00 0.00 48 1017.0
20200702200104 86 118 1.0 3.0 0.00 0.00 0.00 47 1016.9
20200702195601 86 51 3.0 4.0 0.00 0.00 0.00 48 1017.1
20200702195058 87 57 1.0 3.0 0.00 0.00 0.00 48 1017.0
20200702194554 87 82 2.0 3.0 0.00 0.00 0.00 47 1016.9
20200702194050 87 120 1.0 1.0 0.00 0.00 0.00 47 1017.1
20200702193547 87 34 2.0 3.0 0.00 0.00 0.00 48 1017.1
20200702193046 87 125 0.0 0.0 0.00 0.00 0.00 45 1017.1
20200702192543 87 312 3.0 4.0 0.00 0.00 0.00 49 1017.4
20200702192042 86 75 2.0 4.0 0.00 0.00 0.00 45 1017.1
20200702191538 87 74 3.0 4.0 0.00 0.00 0.00 48 1017.2
20200702191035 87 3 2.0 3.0 0.00 0.00 0.00 45 1017.4
20200702190528 87 158 3.0 3.0 0.00 0.00 0.00 47 1017.1
20200702190027 86 78 1.0 1.0 0.00 0.00 0.00 47 1017.2
20200702185526 84 63 1.0 3.0 0.00 0.00 0.00 49 1017.2
20200702185021 85 36 3.0 4.0 0.00 0.00 0.00 51 1017.1
20200702184518 86 10 4.0 5.0 0.00 0.00 0.00 50 1017.4
20200702184018 86 43 3.0 3.0 0.00 0.00 0.00 51 1017.4
20200702183516 87 86 1.0 3.0 0.00 0.00 0.00 49 1017.2
20200702183016 87 12 3.0 4.0 0.00 0.00 0.00 49 1017.4
20200702182511 86 40 3.0 3.0 0.00 0.00 0.00 49 1017.4
20200702182008 86 20 4.0 5.0 0.00 0.00 0.00 47 1017.4
20200702181508 86 125 0.0 0.0 0.00 0.00 0.00 47 1017.3
20200702181002 86 6 5.0 7.0 0.00 0.00 0.00 50 1017.6
20200702180501 86 91 2.0 3.0 0.00 0.00 0.00 52 1017.5
20200702175959 86 82 2.0 3.0 0.00 0.00 0.00 48 1017.6
20200702175454 86 31 3.0 4.0 0.00 0.00 0.00 51 1017.5
20200702174950 84 87 1.0 1.0 0.00 0.00 0.00 52 1017.8
20200702174446 84 55 3.0 5.0 0.00 0.00 0.00 51 1017.7
20200702173948 86 2 5.0 7.0 0.00 0.00 0.00 50 1017.7
20200702173445 86 30 2.0 3.0 0.00 0.00 0.00 51 1017.6
20200702172942 86 28 4.0 4.0 0.00 0.00 0.00 50 1017.6
20200702172442 87 89 1.0 1.0 0.00 0.00 0.00 47 1017.5
20200702171936 86 100 1.0 1.0 0.00 0.00 0.00 50 1017.5
20200702171432 86 9 5.0 8.0 0.00 0.00 0.00 51 1017.6
20200702170927 86 350 3.0 4.0 0.00 0.00 0.00 48 1017.9
20200702170425 86 66 1.0 1.0 0.00 0.00 0.00 50 1017.8
20200702165922 86 118 1.0 1.0 0.00 0.00 0.00 49 1017.7
20200702165417 86 27 3.0 4.0 0.00 0.00 0.00 49 1017.8
20200702164912 85 107 3.0 4.0 0.00 0.00 0.00 51 1017.9
20200702164406 86 22 4.0 4.0 0.00 0.00 0.00 48 1017.7
20200702163905 85 348 4.0 4.0 0.00 0.00 0.00 51 1018.0
20200702163404 85 40 2.0 3.0 0.00 0.00 0.00 51 1018.1
20200702162903 84 41 5.0 7.0 0.00 0.00 0.00 50 1018.0
20200702162401 84 45 4.0 4.0 0.00 0.00 0.00 52 1017.9
20200702161902 84 41 2.0 3.0 0.00 0.00 0.00 51 1017.9
20200702161355 84 92 3.0 4.0 0.00 0.00 0.00 51 1018.0
20200702160850 84 36 3.0 3.0 0.00 0.00 0.00 51 1017.9
20200702160349 84 49 2.0 3.0 0.00 0.00 0.00 53 1017.9
20200702155846 84 68 3.0 4.0 0.00 0.00 0.00 51 1017.9
20200702155344 84 13 4.0 5.0 0.00 0.00 0.00 53 1017.9
20200702154845 85 42 1.0 3.0 0.00 0.00 0.00 53 1017.9
20200702154345 84 91 2.0 3.0 0.00 0.00 0.00 52 1017.9
20200702153840 84 104 0.0 1.0 0.00 0.00 0.00 51 1018.0
20200702153336 84 27 3.0 4.0 0.00 0.00 0.00 53 1017.9
20200702152834 84 96 3.0 4.0 0.00 0.00 0.00 55 1017.9
20200702152330 84 49 5.0 5.0 0.00 0.00 0.00 56 1017.9
20200702151826 84 152 1.0 1.0 0.00 0.00 0.00 57 1017.7
20200702151324 83 87 2.0 3.0 0.00 0.00 0.00 55 1017.9
20200702150820 83 122 1.0 1.0 0.00 0.00 0.00 59 1017.9
20200702150320 83 15 3.0 4.0 0.00 0.00 0.00 57 1017.9
20200702145817 82 108 1.0 1.0 0.00 0.00 0.00 61 1018.0
20200702145315 82 113 1.0 1.0 0.00 0.00 0.00 62 1017.8
20200702144808 82 78 1.0 1.0 0.00 0.00 0.00 63 1017.8
20200702144308 82 56 1.0 1.0 0.00 0.00 0.00 63 1017.8
20200702143807 81 96 2.0 3.0 0.00 0.00 0.00 64 1017.8
20200702143307 81 34 3.0 3.0 0.00 0.00 0.00 64 1017.9
20200702142804 80 80 1.0 1.0 0.00 0.00 0.00 67 1017.9
20200702142259 80 38 3.0 3.0 0.00 0.00 0.00 65 1017.8
20200702141756 80 77 1.0 3.0 0.00 0.00 0.00 66 1017.7
20200702141251 80 21 4.0 4.0 0.00 0.00 0.00 67 1017.6
20200702140747 80 70 3.0 3.0 0.00 0.00 0.00 67 1017.6
20200702140246 80 95 1.0 1.0 0.00 0.00 0.00 66 1017.6
20200702135745 79 78 1.0 1.0 0.00 0.00 0.00 68 1017.7
20200702135241 79 85 2.0 3.0 0.00 0.00 0.00 68 1017.6
20200702134740 78 79 1.0 1.0 0.00 0.00 0.00 69 1017.9
20200702134235 79 83 2.0 3.0 0.00 0.00 0.00 69 1017.7
20200702133731 79 38 2.0 4.0 0.00 0.00 0.00 67 1017.7
20200702133227 78 103 1.0 1.0 0.00 0.00 0.00 66 1017.6
20200702132726 78 102 0.0 0.0 0.00 0.00 0.00 68 1017.6
20200702132225 77 98 1.0 1.0 0.00 0.00 0.00 69 1017.7
20200702131722 77 107 0.0 1.0 0.00 0.00 0.00 70 1017.8
20200702131229 76 102 0.0 1.0 0.00 0.00 0.00 71 1017.7
20200702130727 75 105 0.0 1.0 0.00 0.00 0.00 74 1017.7
20200702130215 75 108 0.0 1.0 0.00 0.00 0.00 76 1017.4
20200702125713 75 63 1.0 1.0 0.00 0.00 0.00 75 1017.7
20200702125208 73 108 0.0 0.0 0.00 0.00 0.00 76 1017.7
20200702124703 73 85 1.0 1.0 0.00 0.00 0.00 77 1017.6
20200702124203 72 120 0.0 0.0 0.00 0.00 0.00 79 1017.6
20200702123657 71 107 0.0 0.0 0.00 0.00 0.00 81 1017.6
20200702123155 70 97 0.0 0.0 0.00 0.00 0.00 83 1017.6
20200702122652 69 100 0.0 0.0 0.00 0.00 0.00 86 1017.6
20200702122152 68 101 0.0 0.0 0.00 0.00 0.00 90 1017.6
20200702121653 66 104 0.0 0.0 0.00 0.00 0.00 94 1017.5
20200702121149 65 104 0.0 0.0 0.00 0.00 0.00 96 1017.6
20200702120647 65 109 0.0 0.0 0.00 0.00 0.00 97 1017.5
20200702120143 64 109 0.0 0.0 0.00 0.00 0.00 97 1017.5
20200702115641 64 123 0.0 0.0 0.00 0.00 0.00 98 1017.5
20200702115140 63 124 0.0 0.0 0.00 0.00 0.00 98 1017.4
20200702114637 63 123 0.0 0.0 0.00 0.00 0.00 98 1017.4
20200702114133 62 123 0.0 0.0 0.00 0.00 0.00 98 1017.3
20200702113628 62 132 0.0 0.0 0.00 0.00 0.00 98 1017.2
20200702113125 61 132 0.0 0.0 0.00 0.00 0.00 98 1017.3
20200702112623 61 133 0.0 0.0 0.00 0.00 0.00 98 1017.3
20200702112118 61 127 0.0 0.0 0.00 0.00 0.00 98 1017.3
20200702111615 60 127 0.0 0.0 0.00 0.00 0.00 98 1017.4
20200702111110 60 127 0.0 0.0 0.00 0.00 0.00 98 1017.3
20200702110607 60 127 0.0 0.0 0.00 0.00 0.00 98 1017.3
20200702110108 59 123 0.0 0.0 0.00 0.00 0.00 98 1017.2